User: anonymous   Login
Location: Unspecified
(0.0000°N, 0.0000°E)
Time: 05:47:17
(UTC+00:00)
Language:

GAOFEN 10R - Orbit

View from above orbital plane
View from above orbital plane
View from above satellite
View from above satellite

Ground track
Ground track

The orbit is defined by the following mean orbital elements,

1 44622U          26145.61867905 +.00000000 +00000-0 +12196-3 0 00003
2 44622  98.0488  99.0359 0004894 196.3089 163.7968 14.83001363    02
Epoch (UTC): 25 May 2026 14:50:53
Eccentricity: 0.0004894
inclination: 98.0488°
perigee height: 616 km
apogee height: 623 km
right ascension of ascending node: 99.0359°
argument of perigee: 196.3089°
revolutions per day: 14.83001363
mean anomaly at epoch: 163.7968°

The dashed part of the orbit path shows where the satellite is in the earth's shadow,  

DLR